Regional Weather Roundup
Issued by NWS Bismarck, ND

Current Version | Previous Version | Text Only | Print | Product List | Glossary On
Versions: 1 2 3 4 5 6 7 8 9 10 11 12 13 14 15 16 17 18 19 20 21 22 23 24 25 26 27 28 29 30 31 32 33 34 35 36 37 38 39 40 41 42 43 44 45 46 47 48 49 50
670
ASUS43 KBIS 100910
RWRBIS

NWR BROADCAST TEXT
NATIONAL WEATHER SERVICE BISMARCK ND
300 AM CST TUE DEC 10 2019

NOTE: "FAIR" INDICATES FEW OR NO CLOUDS BELOW 12,000 FEET WITH NO
SIGNIFICANT WEATHER AND/OR OBSTRUCTIONS TO VISIBILITY.


CITY           SKY/WX    TMP DP  RH WIND       PRES   REMARKS
WILLISTON      FAIR     -13 -18  78 W12       30.18R WCI -33
MINOT          CLEAR     -9 -15  75 W12       30.18R WCI -28
MINOT AFB      CLEAR    -12 -18  74 NW12      30.18R WCI -32
BISMARCK       CLEAR     -2  -7  79 NW12      30.20R WCI -20
DICKINSON      MOCLDY    -4  -9  79 NW10      30.12R WCI -21
GARRISON         N/A    -11 -16  78 MISG      30.18R
HETTINGER ARPT CLEAR     -4  -8  83 NW9       30.14R WCI -20
JAMESTOWN      PTCLDY    -5 -11  75 N20       30.13R WCI -28
CARRINGTON     CLOUDY    -8 -13  77 NW9       30.17R WCI -25
HAZEN          CLOUDY    -4  -6  92 NW9       30.22R WCI -20
MANDAN         PTSUNNY   -6  -9  84 NW15      30.17R WCI -27
OAKES          CLOUDY     3  -2  78 NW17G24   30.12R WCI -17
RUGBY          FAIR     -18 -22  83 NW8       30.17R WCI -37
STANLEY        FAIR     -15 -20  76 SW3       30.15S
TIOGA          FAIR     -17 -20  83 W8        30.18R WCI -34
WATFORD CITY   FAIR      -9 -15  77 W6        30.21R WCI -23
$$

CITY           SKY/WX    TMP DP  RH WIND       PRES   REMARKS
GRAND FORKS    CLOUDY    -8 -13  78 NW15G26   30.16R WCI -30
GRAND FORKS AF CLOUDY    -8 -15  71 N14       30.17R WCI -28
DEVILS LAKE    CLEAR    -11 -16  78 NW15      30.14R WCI -33
FARGO          CLOUDY     0  -5  79 NW16      30.12R WCI -20
CANDO          FAIR     -15 -20  76 NW7       30.18R WCI -31
CAVALIER       CLOUDY    -9 -17  70 NW17G24   30.17R WCI -33
GRAFTON        PTSUNNY   -8 -15  71 N20G29    30.19R HAZE    WCI -32
GWINNER        CLOUDY     1  -2  85 NW14      30.11R WCI -17
LANGDON        FAIR     -13 -18  77 NW16      30.10R WCI -37
ROLLA          FAIR     -13 -20  70 NW15      30.11R WCI -36
WALHALLA       FAIR     -11 -17  77 NW12G17   30.18R WCI -31
$$

CITY           SKY/WX    TMP DP  RH WIND       PRES   REMARKS
ABERDEEN       CLEAR      3  -3  76 NW16      30.16R WCI -16
MOBRIDGE       PTCLDY     6  -2  69 NW13G29   30.15R WCI -10
BUFFALO          N/A     -2  -8  76 NW10      30.10R WCI -19
RAPID CITY     MOCLDY    11   6  81 N14       30.11R WCI  -5
GLASGOW        PTCLDY   -12 -17  78 CALM      30.21S
SIDNEY         CLEAR    -13 -17  82 CALM      30.25R
WOLF POINT     PTCLDY   -17 -22  78 NW5       30.26S WCI -30
GLENDIVE       CLEAR     -9 -13  83 NW10      30.21S WCI -27
MILES CITY     PTCLDY     1  -3  83 NW9       30.21R WCI -14
BAKER          PTCLDY    -4  -8  83 W10       30.15R WCI -21
$$

CITY           SKY/WX    TMP DP  RH WIND       PRES   REMARKS
BILLINGS       FLURRIES  14  11  87 NE7       30.11S WCI   4
GREAT FALLS    CLOUDY    17  13  84 CALM      30.07F
REGINA         CRYSTALS -17 -20  83 W6        30.17F WCI -31
ESTEVAN        CLEAR    -15 -20  76 NW13G18   30.18S WCI -37
$$





USA.gov is the U.S. government's official web portal to all federal, state and local government web resources and services.